EW9733 Weather Reports


time (UTC)temp
C
wind
direction
speed
KPH
gust
KPH
rain 1hr
cm
rain 24hr
cm
rain mn
cm
humidity
%
barometer
mb
20260906203022 21 319 0.0 4.8 0.00 0.23 0.23 62 1012.8
20260906201522 20 260 0.0 4.8 0.00 0.23 0.23 65 1012.8
20260906200020 21 152 0.0 9.7 0.00 0.23 0.23 68 1013.0
20260906194519 20 84 1.6 9.7 0.00 0.23 0.23 62 1012.9
20260906193017 20 211 0.0 6.4 0.00 0.23 0.23 67 1012.9
20260906191515 20 9 0.0 3.2 0.00 0.23 0.23 69 1012.9
20260906190019 19 76 0.0 8.0 0.00 0.23 0.23 68 1013.1
20260906184514 19 49 0.0 4.8 0.00 0.23 0.23 68 1013.2
20260906183015 19 283 0.0 3.2 0.00 0.23 0.23 69 1013.3
20260906181528 19 60 0.0 9.7 0.00 0.23 0.23 70 1013.5
20260906180012 19 56 1.6 9.7 0.00 0.23 0.23 69 1013.7
20260906174513 19 5 0.0 3.2 0.00 0.23 0.23 69 1013.8
20260906173012 19 32 0.0 8.0 0.00 0.23 0.23 69 1013.8
20260906171511 18 17 0.0 8.0 0.00 0.23 0.23 70 1013.7
20260906170012 20 42 3.2 11.3 0.00 0.23 0.23 67 1013.9
20260906164508 19 12 0.0 14.5 0.00 0.23 0.23 67 1013.9
20260906163008 19 67 0.0 9.7 0.00 0.23 0.23 70 1014.0
20260906161509 20 99 3.2 14.5 0.00 0.23 0.23 69 1014.3
20260906160015 18 44 1.6 14.5 0.00 0.23 0.23 70 1014.2
20260906154504 18 325 0.0 17.7 0.00 0.23 0.23 71 1014.3
20260906153003 18 51 1.6 12.9 0.00 0.23 0.23 70 1014.3
20260906151606 18 70 0.0 8.0 0.00 0.23 0.23 80 1014.4
20260906150059 18 43 6.4 16.1 0.00 0.23 0.23 76 1014.6
20260906144611 18 46 3.2 11.3 0.00 0.23 0.23 77 1014.4
20260906143110 18 21 1.6 12.9 0.00 0.23 0.23 78 1014.2
20260906141554 17 343 1.6 9.7 0.00 0.23 0.23 82 1014.2
20260906140048 17 37 0.0 17.7 0.00 0.23 0.23 86 1014.1
20260906134550 17 42 4.8 12.9 0.00 0.23 0.23 88 1014.1
20260906133046 17 26 0.0 14.5 0.00 0.23 0.23 90 1014.1
20260906131548 16 51 1.6 9.7 0.00 0.23 0.23 92 1014.1
20260906130044 16 255 0.0 12.9 0.00 0.23 0.23 92 1014.0
20260906124537 16 63 0.0 4.8 0.00 0.25 0.23 93 1013.8
20260906123036 16 360 0.0 1.6 0.00 0.25 0.23 94 1013.7
20260906121531 16 360 0.0 1.6 0.00 0.25 0.23 93 1013.7
20260906120030 15 49 0.0 0.0 0.00 0.25 0.23 93 1013.6
20260906114532 15 49 0.0 0.0 0.03 0.25 0.23 93 1013.4
20260906113038 15 49 0.0 0.0 0.05 0.25 0.23 93 1013.2
20260906111522 14 49 0.0 0.0 0.05 0.25 0.23 92 1013.1
20260906110018 14 49 0.0 0.0 0.05 0.25 0.23 92 1012.9
20260906104514 14 49 0.0 0.0 0.08 0.23 0.20 92 1012.8
20260906103012 15 49 0.0 0.0 0.05 0.20 0.18 92 1012.7
20260906101511 15 49 0.0 0.0 0.05 0.20 0.18 91 1012.8
20260906100010 15 49 0.0 0.0 0.05 0.20 0.18 91 1012.7
20260906094515 15 49 0.0 0.0 0.05 0.15 0.13 91 1012.0
20260906093006 15 42 0.0 3.2 0.08 0.15 0.13 91 1012.3
20260906091512 15 42 0.0 0.0 0.10 0.15 0.13 91 1012.4
20260906090003 15 42 0.0 4.8 0.13 0.15 0.13 91 1012.2
20260906084508 15 43 0.0 3.2 0.08 0.10 0.08 91 1012.0
20260906083100 15 43 0.0 0.0 0.05 0.08 0.05 91 1011.9
20260906081600 15 43 0.0 3.2 0.03 0.05 0.03 91 1011.8
20260906080058 15 42 0.0 3.2 0.00 0.03 0.00 91 1011.8
20260906074557 15 46 0.0 4.8 0.00 0.03 0.00 91 1011.5
20260906073056 15 47 0.0 3.2 0.00 0.03 0.00 91 1011.5
20260906071605 15 47 0.0 0.0 0.00 0.03 0.00 91 1011.6
20260906070055 15 47 0.0 0.0 0.00 0.03 0.00 91 1011.6
20260906064555 15 47 0.0 0.0 0.00 0.03 0.00 90 1011.5
20260906063051 15 47 0.0 0.0 0.00 0.03 0.00 90 1011.4
20260906061551 15 47 0.0 0.0 0.00 0.03 0.00 90 1011.5
20260906060050 15 47 0.0 0.0 0.00 0.03 0.00 89 1011.5
20260906054551 15 47 0.0 0.0 0.00 0.03 0.00 89 1011.5
20260906053047 15 47 0.0 0.0 0.00 0.03 0.00 89 1011.5
20260906051552 15 47 0.0 0.0 0.00 0.03 0.00 88 1011.7
20260906050109 15 47 0.0 0.0 0.00 0.03 0.00 88 1011.8
20260906044545 15 47 0.0 0.0 0.00 0.03 0.00 88 1011.8
20260906043041 15 47 0.0 0.0 0.00 0.03 0.00 87 1011.6
20260906041539 15 47 0.0 0.0 0.00 0.03 0.00 87 1011.6
20260906040044 16 47 0.0 0.0 0.00 0.03 0.00 87 1011.5
20260906034542 16 47 0.0 0.0 0.00 0.03 0.03 87 1011.3
20260906033036 16 47 0.0 0.0 0.00 0.03 0.03 87 1011.3
20260906031541 16 47 0.0 0.0 0.00 0.03 0.03 86 1011.2
20260906030036 16 47 0.0 0.0 0.00 0.03 0.03 86 1011.3
20260906024537 16 47 0.0 0.0 0.00 0.03 0.03 86 1011.4
20260906023038 16 47 0.0 0.0 0.00 0.03 0.03 85 1011.4
20260906021532 17 47 0.0 0.0 0.00 0.03 0.03 85 1011.3
20260906020032 17 47 0.0 0.0 0.00 0.03 0.03 85 1011.2
20260906014534 17 47 0.0 0.0 0.00 0.03 0.03 84 1011.4
20260906013032 17 47 0.0 0.0 0.00 0.03 0.03 84 1011.5
20260906011533 17 47 0.0 0.0 0.00 0.03 0.03 83 1011.3
20260906010030 17 47 0.0 0.0 0.00 0.03 0.03 83 1011.3
20260906004531 17 47 0.0 0.0 0.00 0.03 0.03 82 1011.2
20260906003026 17 47 0.0 0.0 0.00 0.03 0.03 82 1011.0
20260906001525 17 47 0.0 0.0 0.00 0.03 0.03 81 1010.9
20260906000029 17 47 0.0 0.0 0.00 0.03 0.03 81 1010.9
20260905234523 18 47 0.0 0.0 0.00 0.03 0.03 80 1010.8
20260905233027 18 47 0.0 0.0 0.00 0.03 0.03 79 1010.7
20260905231521 18 47 0.0 0.0 0.00 0.03 0.03 78 1010.7
20260905230020 18 47 0.0 1.6 0.00 0.03 0.03 78 1010.6
20260905224520 18 47 0.0 3.2 0.00 0.03 0.03 77 1010.6
20260905223020 18 47 0.0 4.8 0.00 0.03 0.03 77 1010.5
20260905221517 18 44 0.0 6.4 0.00 0.03 0.03 76 1010.5
20260905220016 19 24 3.2 8.0 0.00 0.03 0.03 75 1010.3
20260905214515 19 152 3.2 12.9 0.00 0.03 0.03 73 1010.1
20260905213013 20 80 1.6 14.5 0.00 0.03 0.03 72 1010.0
20260905211512 20 95 1.6 11.3 0.00 0.03 0.03 73 1009.9
20260905210011 20 61 1.6 20.9 0.00 0.03 0.03 73 1010.0
20260905204512 20 72 0.0 9.7 0.00 0.03 0.03 76 1009.8